N5RML-1 Weather Reports


Display with metric or nautical units.
time (UTC)temp
F
wind
direction
speed
MPH
gust
MPH
rain 1hr
in
rain 24hr
in
rain mn
in
humidity
%
barometer
mb
20260901065530 82 131 1.0 3.0 0.00 0.02 0.00 90 1017.4
20260901064520 82 148 2.0 5.0 0.00 0.02 0.00 90 1017.6
20260901063547 82 145 1.0 3.0 0.00 0.02 0.00 90 1017.6
20260901062535 82 90 0.0 2.0 0.00 0.02 0.00 90 1017.5
20260901061525 82 119 2.0 3.0 0.00 0.02 0.00 89 1017.5
20260901060533 82 110 2.0 4.0 0.00 0.02 0.00 89 1017.6
20260901055522 82 131 2.0 5.0 0.00 0.02 0.00 89 1017.5
20260901054531 82 0.0 0.0 0.00 0.02 0.00 89 1017.5
20260901053602 82 113 2.0 4.0 0.00 0.02 0.00 89 1017.4
20260901052528 82 139 2.0 4.0 0.00 0.02 0.00 89 1017.5
20260901051536 82 158 3.0 6.0 0.00 0.02 0.00 89 1017.6
20260901050525 82 125 3.0 6.0 0.00 0.02 0.00 88 1017.8
20260901045535 82 94 1.0 3.0 0.00 0.02 0.02 88 1017.8
20260901044522 82 119 1.0 3.0 0.00 0.02 0.02 88 1017.9
20260901043530 82 126 1.0 4.0 0.00 0.02 0.02 88 1017.7
20260901042520 82 145 2.0 4.0 0.00 0.02 0.02 88 1017.7
20260901041528 82 140 2.0 4.0 0.00 0.02 0.02 88 1017.7
20260901040536 82 140 2.0 4.0 0.00 0.02 0.02 88 1017.6
20260901035525 82 112 3.0 5.0 0.00 0.02 0.02 88 1017.7
20260901034554 82 151 2.0 4.0 0.00 0.02 0.02 88 1017.7
20260901033522 82 119 2.0 5.0 0.00 0.02 0.02 88 1017.7
20260901032549 83 163 2.0 5.0 0.00 0.02 0.02 87 1017.6
20260901031520 83 137 3.0 4.0 0.00 0.02 0.02 87 1017.5
20260901030531 83 113 3.0 4.0 0.00 0.02 0.02 87 1017.2
20260901025536 83 133 2.0 5.0 0.00 0.02 0.02 86 1017.3
20260901024525 83 130 3.0 5.0 0.00 0.02 0.02 86 1017.3
20260901023533 83 127 3.0 4.0 0.00 0.02 0.02 86 1017.2
20260901022523 83 117 3.0 6.0 0.00 0.02 0.02 86 1017.1
20260901021531 83 151 2.0 4.0 0.00 0.02 0.02 86 1017.1
20260901020520 83 86 1.0 3.0 0.00 0.02 0.02 86 1017.2
20260901015549 83 340 1.0 3.0 0.00 0.02 0.02 85 1017.1
20260901014536 83 94 2.0 4.0 0.00 0.02 0.02 85 1017.0
20260901013546 83 66 2.0 4.0 0.00 0.02 0.02 85 1016.9
20260901012533 83 73 1.0 3.0 0.00 0.02 0.02 83 1016.6
20260901011523 84 114 1.0 3.0 0.00 0.02 0.02 83 1016.5
20260901010531 84 50 2.0 3.0 0.00 0.02 0.02 82 1016.4
20260901005520 84 136 1.0 3.0 0.00 0.02 0.02 81 1016.4
20260901004609 85 128 1.0 3.0 0.00 0.02 0.02 80 1016.3
20260901003537 85 133 3.0 4.0 0.00 0.02 0.02 79 1016.3
20260901002547 85 114 1.0 4.0 0.00 0.02 0.02 78 1016.4
20260901001615 86 141 3.0 6.0 0.00 0.02 0.02 76 1016.4
20260901000524 86 133 2.0 4.0 0.00 0.02 0.02 75 1016.4
20260831235531 86 123 2.0 3.0 0.00 0.02 0.02 75 1016.5
20260831234521 86 123 2.0 4.0 0.00 0.02 0.02 75 1016.6
20260831233529 87 233 3.0 6.0 0.00 0.02 0.02 73 1016.7
20260831232537 87 79 2.0 3.0 0.00 0.02 0.02 72 1016.7
20260831231526 88 137 4.0 7.0 0.00 0.02 0.02 71 1016.8
20260831230535 88 138 3.0 5.0 0.00 0.02 0.02 72 1016.9
20260831225524 89 143 2.0 4.0 0.00 0.02 0.02 70 1016.9
20260831224532 89 147 3.0 6.0 0.00 0.02 0.02 68 1017.0
20260831223521 89 25 3.0 7.0 0.00 0.02 0.02 70 1017.0
20260831222529 89 96 3.0 6.0 0.00 0.02 0.02 70 1017.0
20260831221537 89 316 3.0 6.0 0.00 0.02 0.02 69 1017.1
20260831220527 89 125 3.0 5.0 0.00 0.02 0.02 69 1017.0
20260831215534 90 145 2.0 5.0 0.00 0.02 0.02 67 1017.0
20260831214604 91 86 3.0 6.0 0.00 0.02 0.02 65 1016.9
20260831213532 92 136 4.0 9.0 0.00 0.02 0.02 65 1016.8
20260831212521 91 145 4.0 5.0 0.00 0.02 0.02 67 1016.9
20260831211529 91 105 6.0 11.0 0.00 0.02 0.02 66 1017.1
20260831210537 91 113 4.0 7.0 0.00 0.02 0.02 68 1017.1
20260831205526 91 171 4.0 6.0 0.00 0.02 0.02 70 1017.1
20260831204534 90 90 3.0 7.0 0.00 0.02 0.02 72 1017.1
20260831203523 91 122 3.0 6.0 0.00 0.02 0.02 69 1017.1
20260831202532 89 130 3.0 7.0 0.00 0.02 0.02 71 1017.1
20260831201541 89 127 4.0 8.0 0.00 0.02 0.02 71 1017.4
20260831200529 91 166 5.0 8.0 0.00 0.02 0.02 70 1017.4
20260831195537 91 133 4.0 7.0 0.00 0.02 0.02 69 1017.5
20260831194529 89 126 4.0 6.0 0.00 0.02 0.02 71 1017.6
20260831193534 88 148 2.0 4.0 0.00 0.02 0.02 73 1017.8
20260831192544 88 120 2.0 5.0 0.00 0.02 0.02 75 1017.8
20260831191532 88 153 4.0 6.0 0.00 0.02 0.02 75 1017.8
20260831190541 89 147 2.0 3.0 0.00 0.02 0.02 73 1017.8
20260831185529 89 127 4.0 7.0 0.00 0.02 0.02 73 1018.0
20260831184537 89 141 4.0 7.0 0.00 0.02 0.02 72 1018.0
20260831183526 91 110 3.0 6.0 0.00 0.02 0.02 71 1018.0
20260831182535 91 110 4.0 10.0 0.00 0.02 0.02 71 1018.1
20260831181524 90 123 4.0 7.0 0.00 0.02 0.02 72 1018.4
20260831180532 88 92 3.0 5.0 0.00 0.02 0.02 73 1018.5
20260831175521 84 57 2.0 3.0 0.00 0.02 0.02 81 1018.6
20260831174529 84 137 3.0 6.0 0.00 0.02 0.02 81 1018.9
20260831173537 85 118 4.0 7.0 0.00 0.02 0.02 84 1018.7
20260831172526 86 149 3.0 5.0 0.00 0.02 0.02 84 1018.8
20260831171555 88 138 5.0 8.0 0.00 0.02 0.02 75 1018.6
20260831170524 91 87 3.0 10.0 0.00 0.02 0.02 71 1018.5
20260831165552 91 114 3.0 5.0 0.00 0.02 0.02 73 1018.6
20260831164521 90 175 4.0 7.0 0.00 0.02 0.02 74 1018.7
20260831163529 89 114 3.0 6.0 0.00 0.02 0.02 76 1018.7
20260831162557 88 98 3.0 6.0 0.00 0.02 0.02 78 1018.9
20260831161527 85 53 1.0 3.0 0.00 0.02 0.02 83 1019.2
20260831160554 84 64 2.0 5.0 0.01 0.02 0.02 85 1019.2
20260831155524 83 69 2.0 5.0 0.01 0.02 0.02 89 1019.1
20260831154552 82 85 2.0 4.0 0.01 0.02 0.02 88 1018.9
20260831153521 82 39 2.0 3.0 0.01 0.02 0.02 88 1019.0
20260831152529 82 20 2.0 5.0 0.01 0.02 0.02 90 1018.9
20260831151537 84 36 1.0 3.0 0.01 0.02 0.02 87 1018.7
20260831150527 83 155 4.0 5.0 0.00 0.01 0.01 85 1018.7
20260831145535 82 156 4.0 6.0 0.00 0.01 0.01 84 1018.5
20260831144524 88 103 4.0 10.0 0.00 0.01 0.01 74 1018.4
20260831143531 89 35 3.0 6.0 0.00 0.01 0.01 75 1018.1
20260831142521 89 75 3.0 5.0 0.00 0.01 0.01 74 1018.0
20260831141609 88 107 3.0 7.0 0.00 0.01 0.01 77 1018.0
20260831140537 86 94 4.0 8.0 0.00 0.01 0.01 80 1018.0
20260831135526 85 141 1.0 3.0 0.00 0.01 0.01 85 1018.0
20260831134534 84 78 3.0 6.0 0.00 0.01 0.01 87 1018.0
20260831133524 83 136 4.0 7.0 0.00 0.01 0.01 88 1017.9
20260831132532 82 95 1.0 7.0 0.01 0.01 0.01 93 1017.8
20260831131521 81 180 0.0 1.0 0.01 0.01 0.01 95 1017.7
20260831130529 80 52 0.0 2.0 0.01 0.01 0.01 96 1017.6
20260831125519 80 0.0 0.0 0.01 0.01 0.01 96 1017.6
20260831124527 79 0.0 0.0 0.01 0.01 0.01 95 1017.6
20260831123535 79 0.0 0.0 0.01 0.01 0.01 95 1017.5
20260831122604 78 0.0 0.0 0.00 0.00 0.00 94 1017.3
20260831121532 78 0.0 0.0 0.00 0.00 0.00 93 1017.2
20260831120522 78 0.0 0.0 0.00 0.00 0.00 93 1017.1
20260831115530 79 0.0 0.0 0.00 0.00 0.00 92 1017.0
20260831114539 79 0.0 0.0 0.00 0.00 0.00 91 1016.9
20260831113530 80 0.0 0.0 0.00 0.00 0.00 90 1016.9
20260831112536 80 270 0.0 1.0 0.00 0.00 0.00 88 1016.8
20260831111525 80 151 2.0 3.0 0.00 0.00 0.00 88 1016.9
20260831110533 80 137 4.0 6.0 0.00 0.00 0.00 88 1016.9
20260831105522 79 153 2.0 8.0 0.00 0.00 0.00 94 1016.9
20260831104532 79 82 0.0 2.0 0.00 0.00 0.00 94 1016.7
20260831103520 79 0.0 0.0 0.00 0.00 0.00 94 1016.7
20260831102528 79 0.0 0.0 0.00 0.00 0.00 94 1016.7
20260831101535 79 0.0 0.0 0.00 0.00 0.00 94 1016.7
20260831100525 79 77 0.0 3.0 0.00 0.00 0.00 94 1016.6
20260831095533 80 0.0 0.0 0.00 0.00 0.00 94 1016.5
20260831094543 80 0.0 0.0 0.00 0.00 0.00 94 1016.5
20260831093550 80 0.0 0.0 0.00 0.00 0.00 94 1016.4
20260831092520 80 0.0 0.0 0.00 0.00 0.00 94 1016.3
20260831091528 80 0.0 0.0 0.00 0.00 0.00 94 1016.3
20260831090536 80 0.0 0.0 0.00 0.00 0.00 93 1016.2
20260831085526 80 0.0 0.0 0.00 0.00 0.00 93 1016.3
20260831084534 80 0.0 0.0 0.00 0.00 0.00 93 1016.3
20260831083523 80 0.0 0.0 0.00 0.00 0.00 93 1016.2
20260831082551 80 0.0 0.0 0.00 0.00 0.00 92 1016.4
20260831081521 80 0.0 0.0 0.00 0.00 0.00 92 1016.3
20260831080528 81 0.0 0.0 0.00 0.00 0.00 91 1016.3
20260831075556 81 0.0 0.0 0.00 0.00 0.00 91 1016.3
20260831074526 81 0.0 0.0 0.00 0.00 0.00 90 1016.4
20260831073534 81 0.0 0.0 0.00 0.00 0.00 89 1016.5
20260831072543 81 11 0.0 2.0 0.00 0.00 0.00 89 1016.4
20260831071531 82 101 1.0 4.0 0.00 0.00 0.00 89 1016.5
20260831070749 82 4.0 4.0 0.00 0.00 0.00 89 1016.5
20260831070521 82 134 2.0 4.0 0.00 0.00 0.00 89 1016.5